[ hide orbit diagram ]
For accurate long-term ephemerides, please instead use our Horizons system.This orbit viewer was implemented using two-body methods, and hence should not be used for determining accurate long-term trajectories (over several years or decades) or planetary encounter circumstances.
Orbital Elements at Epoch 2459200.5 (2020-Dec-17.0) TDB
Reference: JPL 12 (heliocentric ecliptic J2000)
Element | Value | Uncertainty (1-sigma) | Units |
e | .08899563441602915 | 5.4324e-08 | |
a | 2.749946692137685 | 2.7121e-08 | au |
q | 2.505213441660631 | 1.5765e-07 | au |
i | 2.766397757709364 | 7.8811e-06 | deg |
node | 62.34475363921587 | 0.00011477 | deg |
peri | 299.4582245732259 | 0.00012349 | deg |
M | 294.0555414522881 | 4.6039e-05 | deg |
tp | 2459505.612953193954 (2021-Oct-18.11295319) | 0.00021492 | TDB |
period | 1665.654181849897 4.56 | 2.4641e-05 6.746e-08 | d yr |
n | .2161312977944673 | 3.1974e-09 | deg/d |
Q | 2.99467994261474 | 2.9535e-08 | au |
|
| | Orbit Determination Parameters
Additional Information
|
[ show covariance matrix ]
Physical Parameter Table
Parameter |
Symbol |
Value |
Units |
Sigma |
Reference |
Notes |
absolute magnitude |
H |
17.11 |
|
n/a |
E2021B25 |
|
|
342843 Davidbowie | Discovered 2008 Dec. 21 by F. Hormuth at Calar Alto. |
David Bowie (David Robert Jones, b. 1947) is a British musician, singer, producer and actor. He started his career in the 1960s and became widely known in the early 1970s. One of the most influential artists, he has released more than 25 albums and has starred in several movies like "Labyrinth" and "Prestige". |
NOTE: some special characters may not display properly (any characters within {} are an attempt to place the proper accent above a character) |
Reference: MPC batch dated 2015-01-05 | Last Updated: 2016-02-25 |
|
[ show close-approach data ]
|